Date,TemperatureHighF,TemperatureAvgF,TemperatureLowF,DewpointHighF,DewpointAvgF,DewpointLowF,HumidityHigh,HumidityAvg,HumidityLow,PressureMaxIn,PressureMinIn,WindSpeedMaxMPH,WindSpeedAvgMPH,GustSpeedMaxMPH,PrecipitationSumIn
2013-1-1,17.4,4.6,-9.2,5.1,-6.7,-19.6,62,59,48,28.94,28.73,10,5,11,0.00
2013-1-2,30.9,18.3,-0.6,26.4,10.2,-10.5,87,70,62,28.79,28.64,15,7,18,0.00
2013-1-3,28.9,15.8,7.5,24.1,7.2,-1.8,84,69,48,29.00,28.79,18,9,18,0.00
2013-1-4,32.2,19.3,11.7,14.8,10.0,5.0,89,68,45,28.88,28.76,17,8,19,0.00
2013-1-5,29.3,20.3,8.4,16.3,11.6,3.0,86,69,52,28.76,28.58,28,11,33,0.00
2013-1-6,30.2,17.0,8.6,13.8,7.9,1.7,86,68,46,28.94,28.76,18,9,20,0.00
2013-1-7,37.9,26.1,11.3,23.0,17.2,7.4,90,70,53,28.76,28.61,29,9,32,0.00
2013-1-8,39.4,26.7,9.7,27.8,20.3,5.8,98,78,58,28.73,28.47,22,8,23,0.00
2013-1-9,49.3,34.1,22.8,30.5,25.6,19.1,94,73,41,29.06,28.73,16,8,19,0.00
2013-1-10,38.1,33.3,25.0,33.8,27.3,19.4,98,80,52,29.00,28.38,18,9,22,0.08
2013-1-11,44.2,37.0,30.0,43.7,36.4,25.8,98,98,84,28.41,28.11,30,9,32,0.00
2013-1-12,29.7,17.4,7.5,26.3,4.7,-4.9,87,57,45,28.76,28.26,33,17,36,0.00
2013-1-13,20.1,9.8,3.0,2.3,-4.7,-9.1,56,51,38,28.94,28.73,20,9,21,0.00
2013-1-14,29.5,13.6,3.6,9.5,-0.2,-11.3,77,54,41,29.09,28.94,10,4,13,0.00
2013-1-15,34.9,20.9,9.5,13.4,8.5,2.6,73,60,40,28.97,28.64,18,8,22,0.00
2013-1-16,48.0,31.9,19.2,30.6,21.3,6.4,87,66,48,28.88,28.50,22,11,24,0.00
2013-1-17,41.4,23.8,10.0,23.1,10.2,-3.0,91,57,34,29.09,28.88,13,4,13,0.00
2013-1-18,49.5,36.9,25.9,29.4,26.2,22.7,92,67,40,28.91,28.50,25,12,26,0.00
2013-1-19,51.4,34.9,10.9,29.5,20.1,-4.0,86,56,38,28.94,28.47,36,12,36,0.00
2013-1-20,14.7,8.1,-0.6,0.0,-6.8,-15.1,53,50,49,29.06,28.94,22,7,24,0.00
2013-1-21,4.6,-1.9,-8.7,-10.3,-16.4,-22.7,49,49,49,29.06,28.97,23,12,24,0.00
2013-1-22,19.2,8.7,-3.3,2.0,-7.7,-17.7,56,47,38,29.03,28.88,14,4,15,0.00
2013-1-23,26.6,14.1,-1.5,10.1,-0.5,-17.6,66,52,44,29.17,28.79,20,8,20,0.00
2013-1-24,17.1,7.3,-2.9,-1.6,-10.5,-19.0,45,43,38,29.20,28.82,22,11,24,0.00
2013-1-25,34.9,19.8,6.8,17.4,3.9,-8.5,61,49,43,28.94,28.70,26,9,29,0.00
2013-1-26,32.5,18.5,3.7,10.4,0.4,-11.1,51,45,36,28.94,28.73,24,10,25,0.00
2013-1-27,32.9,32.0,27.0,32.4,26.8,9.9,98,84,44,28.73,28.44,20,8,24,0.04
2013-1-28,38.1,34.3,32.4,37.6,33.8,31.9,98,98,98,28.58,28.26,12,4,14,0.00
2013-1-29,35.6,32.3,25.3,35.1,29.9,21.8,98,91,81,28.38,28.23,16,6,20,0.00
2013-1-30,25.3,19.3,8.4,21.8,9.5,-2.2,90,66,48,28.52,28.29,24,14,29,0.00
2013-1-31,8.1,2.3,-5.6,-2.6,-8.1,-15.6,61,61,61,28.97,28.52,32,16,35,0.00
2013-2-1,23.4,7.1,-9.2,16.3,-3.3,-19.0,75,62,52,29.00,28.64,28,10,28,0.00
2013-2-2,33.3,20.4,8.4,29.2,10.6,-1.0,98,66,42,28.85,28.61,29,8,31,0.00
2013-2-3,37.6,24.4,11.7,22.2,13.0,3.4,84,63,42,28.82,28.44,23,10,26,0.00
2013-2-4,30.4,21.8,14.2,21.0,11.8,6.1,85,67,43,28.70,28.44,13,4,15,0.00
2013-2-5,46.6,31.1,19.9,27.5,22.1,15.9,91,72,38,28.76,28.41,21,8,24,0.00
2013-2-6,42.6,32.4,17.4,32.0,25.6,12.7,92,77,56,28.76,28.55,33,10,33,0.00
2013-2-7,36.3,29.0,25.7,32.3,24.1,17.6,96,82,71,28.88,28.58,13,6,20,0.00
2013-2-8,30.6,25.7,23.2,22.5,18.4,15.5,90,74,56,29.00,28.85,23,8,26,0.00
2013-2-9,39.9,30.9,25.0,31.0,25.9,21.2,94,82,57,28.85,28.47,29,16,30,0.00
2013-2-10,41.0,33.9,27.9,40.3,32.4,22.7,98,94,74,28.47,27.93,35,17,40,0.21
2013-2-11,29.1,26.4,24.1,21.8,16.8,12.8,78,67,58,28.79,28.26,40,21,40,0.00
2013-2-12,44.4,30.1,17.1,24.7,19.0,12.2,88,65,39,28.79,28.52,18,7,21,0.00
2013-2-13,51.1,35.8,23.5,30.5,25.1,19.8,91,67,37,28.55,28.35,18,8,20,0.00
2013-2-14,40.5,31.5,16.3,30.2,21.5,2.8,81,67,49,28.88,28.38,29,12,32,0.00
2013-2-15,32.2,18.0,3.0,10.3,2.9,-6.1,65,52,40,28.97,28.88,12,6,14,0.00
2013-2-16,64.2,23.5,-0.4,30.0,6.1,-9.3,80,52,23,28.94,28.70,11,4,11,0.00
2013-2-17,58.6,39.9,0.0,34.4,22.7,0.0,89,54,28,28.70,28.29,27,17,32,0.00
2013-2-18,39.2,25.5,8.8,38.3,17.4,1.6,98,72,44,28.61,28.26,30,13,35,0.00
2013-2-19,31.6,11.7,-0.2,15.9,-4.3,-20.3,76,50,33,29.03,28.61,33,15,35,0.00
2013-2-20,32.9,12.8,-4.4,5.6,-8.2,-24.0,57,38,31,29.06,28.91,15,6,18,0.00
2013-2-21,27.9,19.3,11.7,16.0,8.2,2.6,85,63,40,28.97,28.55,25,14,27,0.00
2013-2-22,34.5,21.3,7.0,15.6,11.3,0.2,92,67,41,28.61,28.50,18,8,21,0.00
2013-2-23,41.7,17.4,-0.6,16.8,5.1,-6.0,82,61,36,28.61,28.52,10,4,10,0.00
2013-2-24,56.7,21.3,2.5,24.3,9.2,-7.9,81,61,28,28.73,28.58,8,2,9,0.04
2013-2-25,34.9,27.0,24.1,25.3,22.1,17.7,98,83,53,28.76,28.64,10,4,11,0.00
2013-2-26,35.8,27.7,22.6,26.3,21.3,17.6,98,78,50,28.61,28.47,15,6,15,0.00
2013-2-27,34.7,26.9,20.5,20.6,17.6,15.1,83,68,52,28.70,28.50,20,11,20,0.00
2013-2-28,34.2,25.8,18.3,19.7,17.4,13.9,89,71,51,28.85,28.70,12,7,15,0.00
2013-3-1,34.0,24.9,20.3,19.2,13.9,8.3,84,64,41,29.00,28.82,12,4,12,0.00
2013-3-2,39.7,23.2,5.5,18.8,10.0,-3.3,74,58,38,28.97,28.79,9,4,11,0.00
2013-3-3,38.7,29.0,18.1,24.0,18.1,13.0,83,65,43,28.79,28.52,23,13,25,0.00
2013-3-4,33.6,29.8,26.2,29.9,26.4,23.4,98,87,78,28.64,28.44,22,10,26,0.00
2013-3-5,32.9,26.9,22.1,30.4,18.7,14.0,98,71,58,28.97,28.61,21,12,26,0.00
2013-3-6,32.4,24.2,20.1,17.2,15.1,12.2,81,69,47,29.06,28.97,11,5,13,0.00
2013-3-7,39.9,26.5,10.9,22.9,18.0,6.8,88,72,49,28.97,28.85,20,10,21,0.00
2013-3-8,49.1,33.7,21.6,33.3,26.1,19.1,94,75,49,28.91,28.67,23,10,23,0.08
2013-3-9,41.7,38.0,34.0,41.2,37.5,33.5,98,98,95,28.67,28.32,26,12,30,0.54
2013-3-10,34.0,30.4,24.8,33.5,28.3,21.9,98,92,80,28.52,28.41,19,9,23,0.00
2013-3-11,33.3,25.8,16.7,22.0,16.2,8.9,89,68,44,28.61,28.47,20,12,22,0.00
2013-3-12,34.0,24.8,16.7,24.0,14.7,8.2,89,66,44,28.91,28.58,32,14,36,0.00
2013-3-13,49.8,23.9,9.7,20.4,10.5,2.3,89,59,29,29.09,28.91,10,6,12,0.04
2013-3-14,55.6,35.7,23.0,32.9,23.1,15.2,98,63,34,28.91,28.70,18,6,19,0.00
2013-3-15,48.9,37.0,29.5,34.5,32.1,28.9,98,84,51,28.73,28.44,13,6,15,0.00
2013-3-16,34.2,29.6,21.6,33.7,21.3,10.2,98,73,46,28.88,28.52,13,7,18,0.00
2013-3-17,38.5,28.5,15.6,27.8,15.7,5.7,86,59,43,28.88,28.50,18,12,21,0.00
2013-3-18,33.3,25.5,16.0,32.6,15.4,3.1,98,67,46,28.67,28.38,35,19,38,0.00
2013-3-19,36.1,22.3,10.2,16.8,5.9,-3.9,71,50,33,28.94,28.64,22,10,23,0.00
2013-3-20,30.7,19.7,10.2,9.8,3.6,-1.3,63,50,39,29.00,28.79,25,11,25,0.00
2013-3-21,40.5,22.8,5.5,15.0,5.6,-6.8,67,48,33,28.79,28.64,13,5,13,0.00
2013-3-22,46.9,28.7,16.7,18.9,12.4,7.0,73,52,31,28.73,28.67,9,5,11,0.00
2013-3-23,39.4,29.6,23.0,21.4,17.4,14.2,83,61,42,28.82,28.70,13,4,17,0.00
2013-3-24,32.7,28.1,23.5,25.6,20.3,12.7,91,73,57,28.73,28.61,15,9,16,0.00
2013-3-25,38.8,30.2,24.4,25.3,18.1,13.3,90,63,41,28.94,28.67,17,10,20,0.00
2013-3-26,46.4,29.4,19.4,21.7,14.8,9.0,79,56,35,29.00,28.91,14,6,15,0.00
2013-3-27,50.5,36.9,21.9,27.9,23.0,18.4,91,61,37,28.97,28.91,13,6,17,0.00
2013-3-28,55.8,41.3,28.0,34.6,28.4,21.9,89,63,37,28.97,28.88,15,6,17,0.00
2013-3-29,60.8,43.0,29.8,37.8,31.3,26.6,95,68,35,28.91,28.73,20,7,24,0.00
2013-3-30,63.5,48.7,38.7,47.7,37.2,29.2,98,67,35,28.73,28.55,21,6,22,0.04
2013-3-31,46.6,37.8,25.9,34.8,25.4,10.9,98,64,40,28.79,28.58,22,10,26,0.00
2013-4-1,37.8,26.6,20.7,14.6,10.0,6.5,60,50,35,28.97,28.79,17,7,18,0.00
2013-4-2,49.5,33.6,18.7,26.8,17.6,10.6,82,55,30,29.00,28.94,10,2,13,0.00
2013-4-3,52.9,36.9,24.8,26.7,22.2,17.7,87,58,36,29.03,28.85,24,10,28,0.00
2013-4-4,61.3,43.1,30.9,31.9,25.0,21.7,73,51,26,28.85,28.73,15,7,16,0.00
2013-4-5,59.5,42.4,30.0,29.3,24.5,20.8,80,53,26,28.85,28.47,27,10,29,0.00
2013-4-6,61.5,51.3,40.3,41.5,35.4,29.4,78,55,40,28.50,28.26,23,11,26,0.00
2013-4-7,59.4,43.6,28.2,44.6,33.8,25.7,98,72,39,28.61,28.38,22,7,27,0.00
2013-4-8,77.9,59.1,44.1,49.7,44.6,37.9,98,65,26,28.55,28.32,24,7,25,0.04
2013-4-9,49.8,41.0,36.7,44.2,39.3,35.4,98,94,81,28.76,28.44,30,17,33,2.28
2013-4-10,37.0,35.2,33.6,36.2,33.3,28.9,98,93,83,28.64,28.44,32,13,36,0.28
2013-4-11,38.1,35.2,32.7,35.8,32.6,29.7,98,91,72,28.44,28.26,13,5,13,0.46
2013-4-12,37.0,33.2,31.6,33.1,25.9,20.5,98,75,55,28.61,28.32,24,12,27,0.00
2013-4-13,50.2,38.0,27.9,33.1,24.8,18.6,81,60,38,28.64,28.50,20,9,24,0.04
2013-4-14,61.0,46.2,38.3,51.3,38.4,28.6,98,75,49,28.50,28.05,34,17,36,0.75
2013-4-15,46.4,38.2,32.9,30.6,22.5,16.7,74,54,41,28.76,28.32,29,12,29,0.00
2013-4-16,54.0,42.0,31.6,27.2,25.0,21.0,80,53,33,28.91,28.73,18,8,18,0.00
2013-4-17,41.7,38.6,36.0,38.2,34.4,25.7,98,86,54,28.88,28.41,35,12,36,1.08
2013-4-18,36.0,33.7,31.6,35.5,31.1,26.2,98,91,78,28.50,28.29,30,12,33,0.79
2013-4-19,40.3,32.6,26.1,26.0,18.8,13.6,83,57,43,28.73,28.38,31,18,36,0.00
2013-4-20,47.8,37.1,23.2,22.5,18.2,14.2,72,48,31,28.94,28.73,18,6,20,0.00
2013-4-21,66.7,48.9,37.6,47.1,34.6,21.2,85,60,29,28.91,28.70,32,11,34,0.16
2013-4-22,46.0,38.6,32.0,41.7,36.5,27.1,98,92,81,28.82,28.64,17,7,34,0.96
2013-4-23,43.3,33.2,27.0,27.6,20.3,14.0,83,60,40,28.85,28.79,17,9,19,0.00
2013-4-24,56.3,39.1,25.5,36.0,22.7,17.8,81,55,27,28.82,28.64,32,12,37,0.00
2013-4-25,64.4,48.3,28.8,28.6,25.3,18.7,88,46,24,28.91,28.70,30,10,31,0.00
2013-4-26,77.7,60.4,44.1,42.6,33.6,26.9,67,40,20,28.85,28.70,24,11,27,0.00
2013-4-27,72.7,56.4,38.3,46.1,40.1,34.6,98,60,27,28.85,28.61,15,7,23,0.00
2013-4-28,82.6,63.7,43.5,44.8,39.2,32.9,96,48,19,28.64,28.38,23,11,28,0.00
2013-4-29,83.3,66.6,51.8,50.4,43.6,36.5,80,46,22,28.50,28.23,17,6,24,0.00
2013-4-30,79.7,66.8,52.2,56.1,42.9,31.5,75,45,22,28.61,28.20,30,10,33,0.04
2013-5-1,52.0,40.0,32.7,42.9,34.3,29.1,97,80,63,29.03,28.61,15,6,17,0.21
2013-5-2,55.6,41.2,32.9,34.4,25.3,20.2,98,57,33,29.17,29.03,14,5,17,0.70
2013-5-3,46.4,36.2,31.5,33.6,25.8,21.3,95,68,40,29.03,28.73,17,6,17,0.04
2013-5-4,44.1,38.0,33.3,41.0,36.3,30.5,98,93,85,28.82,28.67,11,5,17,0.08
2013-5-5,50.0,43.4,40.8,46.5,42.2,40.3,98,96,81,28.85,28.76,11,4,12,0.00
2013-5-6,73.6,58.1,42.4,47.7,43.5,40.2,98,64,33,28.82,28.73,10,4,13,0.00
2013-5-7,77.0,63.3,44.2,49.2,43.0,37.5,97,54,25,28.76,28.64,15,5,22,0.00
2013-5-8,75.2,61.4,54.0,58.1,48.9,41.6,98,67,33,28.70,28.61,20,5,24,0.46
2013-5-9,70.7,57.6,49.5,60.5,52.4,43.1,98,84,57,28.70,28.58,13,4,20,0.37
2013-5-10,72.0,56.1,40.6,44.4,36.2,28.1,86,51,25,28.76,28.64,14,5,18,0.00
2013-5-11,58.5,51.3,38.7,39.5,22.7,11.7,59,34,20,28.88,28.64,28,11,29,0.00
2013-5-12,66.2,49.8,31.3,25.0,17.6,13.4,52,30,15,28.94,28.79,16,5,22,0.00
2013-5-13,82.4,61.6,38.8,38.3,29.8,15.9,49,32,20,28.82,28.50,34,10,34,0.00
2013-5-14,104.0,76.8,58.5,50.1,39.9,19.6,65,32,9,28.50,28.32,30,10,33,0.00
2013-5-15,88.0,69.9,56.3,39.1,34.0,21.3,42,28,17,28.67,28.47,15,5,20,0.00
2013-5-16,89.4,71.0,53.1,62.9,43.3,33.5,93,42,18,28.61,28.50,24,8,29,0.21
2013-5-17,84.0,72.1,61.9,62.6,56.1,49.4,97,62,31,28.61,28.52,20,8,20,0.00
2013-5-18,87.1,73.3,59.4,58.7,53.2,48.5,92,54,29,28.64,28.44,23,9,27,0.00
2013-5-19,77.4,67.6,62.1,61.8,58.3,53.6,91,73,46,28.50,28.26,33,10,43,0.75
2013-5-20,74.5,64.6,57.6,59.0,53.6,44.4,98,71,36,28.35,28.23,27,12,27,0.08
2013-5-21,64.8,59.3,55.9,55.8,47.2,40.0,95,66,42,28.38,28.26,21,10,25,0.00
2013-5-22,57.6,54.3,51.1,54.3,50.2,44.7,95,86,67,28.64,28.35,18,7,18,0.08
2013-5-23,71.6,59.9,47.3,49.4,38.3,28.8,94,50,24,28.97,28.61,18,6,21,0.00
2013-5-24,75.9,60.1,43.7,47.7,36.6,31.1,69,44,24,29.00,28.82,28,12,33,0.00
2013-5-25,60.1,55.0,50.2,51.6,47.8,37.8,98,78,46,28.88,28.73,33,15,36,0.67
2013-5-26,61.9,54.5,50.0,58.7,52.3,47.7,98,92,74,28.82,28.52,35,14,40,1.16
2013-5-27,68.4,60.4,54.3,58.1,55.4,50.6,98,85,54,28.73,28.41,28,8,93,1.37
2013-5-28,78.8,69.3,59.4,64.4,57.8,51.2,98,71,40,28.47,28.38,13,5,14,0.12
2013-5-29,74.3,68.0,62.6,64.9,60.6,51.9,98,78,48,28.47,28.32,28,12,40,0.71
2013-5-30,71.2,66.8,63.1,63.6,57.7,48.4,96,73,56,28.38,28.23,28,16,34,0.25
2013-5-31,77.4,68.4,58.5,51.5,45.0,38.1,75,45,30,28.35,28.29,26,12,29,0.00
2013-6-1,67.8,59.6,54.0,58.1,48.6,41.1,84,67,49,28.67,28.32,19,8,23,0.20
2013-6-2,70.5,59.0,50.2,47.1,39.4,32.3,77,51,27,28.79,28.67,10,3,12,0.00
2013-6-3,72.7,62.6,48.7,44.7,39.8,37.3,74,45,28,28.76,28.58,21,8,28,0.00
2013-6-4,61.5,59.3,56.8,59.8,52.9,43.8,98,80,53,28.73,28.64,25,9,29,0.17
2013-6-5,71.1,62.9,56.8,60.8,48.7,37.9,98,65,34,28.73,28.64,16,5,19,0.00
2013-6-6,75.4,62.8,52.9,53.3,44.7,38.5,84,54,33,28.70,28.61,10,3,13,0.00
2013-6-7,74.5,60.4,48.0,54.4,42.8,35.7,94,57,29,28.73,28.61,10,2,13,0.00
2013-6-8,66.9,59.9,51.8,58.5,49.9,42.2,91,71,44,28.61,28.41,24,9,26,0.79
2013-6-9,70.7,63.5,59.4,60.3,56.9,52.5,93,80,57,28.50,28.38,24,10,28,0.08
2013-6-10,81.1,67.2,58.5,63.3,56.8,50.6,98,73,39,28.61,28.50,10,3,13,0.00
2013-6-11,90.7,78.2,64.9,64.2,57.6,51.6,83,53,28,28.58,28.47,20,8,23,0.00
2013-6-12,91.0,74.6,63.5,68.3,60.2,45.2,91,63,36,28.67,28.41,26,9,32,0.25
2013-6-13,86.5,72.3,58.1,50.0,44.5,37.8,69,40,21,28.79,28.67,10,4,13,0.00
2013-6-14,78.6,70.2,63.9,64.9,52.2,44.9,92,55,34,28.76,28.50,33,15,48,0.79
2013-6-15,83.3,71.5,63.0,65.3,58.1,52.9,86,64,42,28.67,28.52,22,6,39,0.16
2013-6-16,91.4,76.5,62.1,65.4,49.7,36.2,95,48,17,28.70,28.61,10,2,13,0.00
2013-6-17,88.3,75.3,60.4,52.8,46.2,37.0,70,39,19,28.70,28.61,21,5,23,0.00
2013-6-18,88.7,74.8,61.5,51.4,47.0,39.2,69,40,22,28.73,28.67,10,3,14,0.00
2013-6-19,89.1,76.4,61.9,55.5,49.6,42.9,73,42,21,28.73,28.64,23,10,26,0.00
2013-6-20,91.8,80.1,68.4,57.5,54.4,51.8,68,43,27,28.70,28.58,32,16,32,0.00
2013-6-21,91.8,80.1,68.7,65.6,59.8,52.6,68,51,30,28.67,28.52,34,15,40,0.00
2013-6-22,90.7,77.2,70.2,65.1,56.1,47.8,84,51,26,28.58,28.52,24,5,31,0.37
2013-6-23,82.8,75.0,66.0,64.4,58.4,49.2,83,58,39,28.61,28.44,23,9,25,0.30
2013-6-24,78.6,71.0,66.0,68.6,61.9,50.2,93,74,44,28.64,28.44,23,6,30,0.87
2013-6-25,89.1,77.1,68.5,70.0,64.1,54.6,95,68,32,28.52,28.41,20,7,24,0.00
2013-6-26,92.3,80.3,69.8,73.5,60.7,45.4,96,58,21,28.58,28.38,19,5,25,0.00
2013-6-27,87.6,75.3,64.4,60.6,52.7,42.9,83,49,22,28.67,28.58,20,6,24,0.00
2013-6-28,86.5,76.6,65.1,53.6,45.3,39.6,56,35,21,28.64,28.52,33,8,33,0.00
2013-6-29,82.0,71.1,59.2,54.9,46.4,41.0,67,42,30,28.64,28.52,18,6,22,0.00
2013-6-30,81.9,68.3,56.5,50.9,42.1,32.3,77,43,21,28.82,28.64,18,4,20,0.00
2013-7-1,88.0,73.2,54.1,50.3,42.3,37.2,73,37,19,28.88,28.82,18,4,18,0.00
2013-7-2,89.1,73.4,57.6,51.3,43.9,37.5,71,39,20,28.85,28.73,16,3,23,0.00
2013-7-3,92.1,74.1,55.6,53.9,46.3,39.6,73,42,19,28.79,28.64,15,3,19,0.16
2013-7-4,89.6,83.1,71.2,49.9,44.3,40.1,42,26,19,28.70,28.61,24,11,27,0.00
2013-7-5,92.1,79.8,65.1,53.4,49.5,46.4,60,36,24,28.64,28.55,26,13,28,0.00
2013-7-6,94.3,79.9,68.2,56.2,51.5,48.2,60,39,23,28.61,28.52,26,13,29,0.00
2013-7-7,95.4,81.7,68.7,62.4,56.1,51.8,71,44,27,28.61,28.55,13,5,17,0.00
2013-7-8,99.5,83.4,68.5,67.1,60.9,55.3,85,51,25,28.67,28.58,10,3,13,0.00
2013-7-9,96.3,82.0,72.7,69.8,62.0,55.2,86,55,28,28.67,28.58,13,4,14,0.04
2013-7-10,87.8,74.6,59.0,63.0,49.0,38.6,80,46,21,28.79,28.67,10,3,15,0.00
2013-7-11,88.7,73.8,57.2,50.7,46.1,40.5,72,42,21,28.82,28.70,16,6,21,0.00
2013-7-12,90.9,78.4,64.2,52.3,49.2,46.0,62,38,24,28.73,28.64,29,13,29,0.00
2013-7-13,85.1,75.4,68.5,57.5,52.4,48.1,66,45,34,28.73,28.67,23,12,28,0.17
2013-7-14,90.0,76.8,67.5,55.7,51.7,47.4,64,44,25,28.88,28.73,17,9,23,0.00
2013-7-15,92.5,76.8,62.6,61.7,55.6,51.2,80,52,28,28.94,28.82,17,4,17,0.00
2013-7-16,95.9,83.8,69.6,67.2,58.9,53.6,87,47,26,28.94,28.88,10,4,13,0.00
2013-7-17,98.8,84.3,68.5,68.4,59.3,53.3,86,48,23,29.00,28.85,13,3,15,0.00
2013-7-18,94.8,82.7,68.7,66.7,58.9,53.3,87,49,27,28.88,28.61,19,6,27,0.00
2013-7-19,96.4,81.6,62.2,61.0,52.2,43.4,63,39,20,28.64,28.55,13,4,16,0.00
2013-7-20,94.1,74.7,55.0,57.9,50.4,45.7,85,48,23,28.70,28.58,8,1,9,0.00
2013-7-21,93.7,75.3,64.2,64.5,55.9,50.3,80,55,27,28.64,28.50,17,3,20,0.00
2013-7-22,95.5,79.4,63.5,67.8,59.1,50.0,95,55,27,28.58,28.44,16,5,23,0.00
2013-7-23,83.5,70.5,57.2,53.8,47.4,39.2,75,47,26,28.73,28.55,12,3,14,0.00
2013-7-24,87.1,71.6,52.3,54.1,47.4,44.0,85,47,24,28.79,28.70,11,2,12,0.00
2013-7-25,90.1,72.9,57.9,62.1,53.3,48.2,83,54,28,28.73,28.61,15,4,18,0.04
2013-7-26,76.1,67.4,54.1,62.8,49.8,38.4,96,58,32,28.79,28.64,19,5,23,0.00
2013-7-27,73.8,60.5,47.3,47.9,38.8,31.3,86,50,25,28.79,28.70,13,3,15,0.00
2013-7-28,80.1,64.6,45.1,44.0,38.3,34.7,81,42,23,28.76,28.70,13,4,18,0.00
2013-7-29,52.0,51.9,51.8,38.8,37.8,36.8,61,58,56,28.76,28.76,2,1,4,0.00
2013-7-30,74.8,70.4,64.6,60.8,57.6,54.5,87,65,51,28.79,28.73,5,1,6,0.00
2013-7-31,64.6,61.2,59.2,60.3,58.6,56.6,95,91,86,28.79,28.76,4,2,6,0.00
2013-8-1,93.0,79.1,61.5,61.2,51.2,45.7,74,42,21,28.76,28.61,12,4,17,0.00
2013-8-2,81.5,68.0,60.6,68.2,54.3,44.1,91,65,30,28.73,28.61,9,1,9,0.08
2013-8-3,84.9,68.7,52.2,57.6,47.3,41.7,91,53,24,28.91,28.73,7,1,10,0.00
2013-8-4,85.1,70.0,49.8,54.8,47.0,43.2,88,49,25,28.91,28.70,15,4,15,0.00
2013-8-5,87.6,73.7,64.8,69.0,57.9,48.5,89,61,31,28.70,28.50,13,5,20,0.00
2013-8-6,92.7,75.1,60.3,68.1,58.6,51.9,95,63,27,28.61,28.50,15,3,17,0.00
2013-8-7,85.5,70.4,59.4,63.8,53.2,44.4,87,59,29,28.73,28.52,8,2,12,0.00
2013-8-8,59.7,58.0,57.2,52.0,49.9,48.6,78,74,72,28.73,28.70,4,1,5,0.00
2013-8-11,81.1,72.1,68.2,65.1,61.6,55.1,85,71,41,28.73,28.67,9,2,10,0.00
2013-8-12,89.1,72.8,56.8,68.2,53.5,42.4,92,57,25,28.79,28.73,11,2,11,0.00
2013-8-13,84.4,66.9,52.7,56.3,45.3,37.8,87,52,23,28.88,28.76,11,2,12,0.00
2013-8-14,83.8,63.5,46.2,57.4,42.1,37.4,85,51,22,28.91,28.79,11,2,13,0.00
2013-8-15,76.3,63.8,50.4,52.8,46.1,41.9,80,55,33,28.85,28.79,16,4,23,0.00
2013-8-16,83.7,65.7,51.1,52.2,44.5,39.5,82,51,24,28.88,28.82,14,3,14,0.00
2013-8-17,85.8,68.2,48.7,55.1,43.4,37.5,83,46,23,28.91,28.82,15,4,16,0.00
2013-8-18,85.6,69.1,50.0,58.6,45.7,41.0,85,48,23,28.85,28.76,17,4,17,0.00
2013-8-19,88.5,73.1,58.1,56.9,53.7,49.8,82,54,31,28.76,28.64,18,6,23,0.00
2013-8-20,92.7,78.3,67.6,62.9,58.4,55.2,76,53,31,28.67,28.58,17,7,18,0.00
2013-8-21,92.3,79.5,70.3,67.0,59.5,53.7,80,53,31,28.70,28.61,16,5,20,0.00
2013-8-22,95.0,78.5,68.2,67.2,60.2,51.8,85,58,28,28.79,28.67,20,4,26,0.08
2013-8-23,90.7,76.8,62.6,69.4,61.1,57.0,95,62,35,28.82,28.70,17,6,18,0.00
2013-8-24,89.2,76.4,70.7,70.4,63.1,56.5,86,66,36,28.82,28.70,20,8,23,0.25
2013-8-25,95.0,82.5,71.4,67.3,61.7,56.6,80,53,29,28.82,28.73,24,8,24,0.00
2013-8-26,97.7,84.5,72.7,66.5,61.1,57.4,77,49,28,28.76,28.64,16,7,19,0.00
2013-8-27,99.5,86.2,73.0,62.7,59.0,55.4,69,43,25,28.64,28.58,12,3,13,0.00
2013-8-28,101.1,83.6,70.3,64.9,57.8,49.9,80,46,20,28.70,28.61,9,3,12,0.00
2013-8-29,98.4,81.3,64.9,66.5,57.4,50.5,85,49,21,28.73,28.61,15,3,20,0.00
2013-8-30,99.0,81.2,67.6,68.5,61.5,55.9,89,56,29,28.61,28.55,10,2,13,0.00
2013-8-31,97.0,78.1,61.2,68.1,57.2,50.4,92,56,22,28.58,28.50,6,1,6,0.00
2013-9-1,84.9,72.0,57.9,66.2,52.8,45.6,94,55,28,28.70,28.47,23,4,33,0.67
2013-9-2,81.3,65.2,51.3,54.1,45.3,39.3,87,55,24,28.79,28.70,10,2,11,0.00
2013-9-3,89.2,66.2,45.0,53.3,46.5,40.3,91,55,21,28.82,28.70,7,1,9,0.00
2013-9-4,94.6,75.4,59.5,58.8,52.2,44.1,86,51,19,28.85,28.73,8,2,10,0.00
2013-9-5,91.4,77.3,65.5,57.3,53.5,48.5,71,47,28,28.88,28.79,10,3,13,0.00
2013-9-6,93.0,75.9,62.2,60.3,55.1,50.0,83,53,27,28.82,28.61,17,5,21,0.00
2013-9-7,90.0,76.5,66.9,68.4,60.7,54.1,87,60,32,28.64,28.58,9,3,11,0.00
2013-9-8,81.0,73.5,68.7,67.9,62.9,56.6,92,72,45,28.67,28.55,12,4,15,0.00
2013-9-9,100.9,82.0,66.4,68.8,54.9,43.7,96,49,17,28.55,28.44,20,6,23,0.00
2013-9-10,95.5,77.7,65.1,57.9,52.0,47.9,71,44,22,28.73,28.55,11,2,19,0.00
2013-9-11,91.6,74.9,62.8,63.7,52.0,42.0,85,51,20,28.79,28.70,6,0,6,0.00
2013-9-12,84.0,69.6,52.9,52.8,39.6,30.7,69,37,19,28.94,28.79,8,1,13,0.00
2013-9-13,79.3,62.1,42.4,49.2,36.3,28.5,81,43,21,28.94,28.79,6,0,8,0.00
2013-9-14,78.8,61.8,44.1,44.0,37.2,33.2,80,44,22,28.79,28.55,23,6,25,0.00
2013-9-15,70.9,64.0,53.1,52.8,43.7,39.3,74,48,35,28.94,28.52,14,5,14,0.00
2013-9-16,78.1,57.3,45.1,53.3,42.3,36.4,93,63,26,29.06,28.91,13,4,15,0.00
2013-9-17,64.2,58.1,51.8,63.7,54.7,31.4,98,89,66,28.94,28.61,15,8,20,0.20
2013-9-18,91.0,76.8,64.4,65.1,58.9,51.1,98,60,28,28.64,28.41,21,10,25,0.00
2013-9-19,85.1,74.1,59.9,62.1,53.7,40.5,67,50,31,28.61,28.41,17,8,18,0.25
2013-9-20,71.1,57.0,42.6,43.9,38.2,30.7,81,51,30,28.70,28.61,16,8,20,0.00
2013-9-21,80.2,57.7,37.4,43.2,34.8,27.2,88,50,20,28.73,28.58,11,3,11,0.00
2013-9-22,81.3,56.5,46.6,45.5,41.2,36.9,82,60,27,28.61,28.55,16,5,18,0.00
2013-9-23,80.1,62.3,51.4,45.6,41.8,36.8,75,51,22,28.61,28.50,25,10,27,0.00
2013-9-24,77.4,62.4,50.7,48.1,42.6,38.8,73,51,31,28.61,28.52,10,4,13,0.00
2013-9-25,81.9,61.2,44.1,54.2,43.3,38.5,88,58,23,28.64,28.52,15,5,23,0.00
2013-9-26,87.4,72.2,57.6,58.1,49.7,42.9,93,52,22,28.58,28.50,29,12,30,0.00
2013-9-27,90.1,75.4,67.1,54.3,49.1,43.6,63,42,21,28.61,28.50,31,14,34,0.00
2013-9-28,70.9,61.0,44.8,62.2,44.5,30.4,89,57,30,28.73,28.41,27,10,27,0.16
2013-9-29,80.2,58.6,41.4,40.1,34.3,27.3,80,47,17,28.73,28.55,23,6,25,0.00
2013-9-30,83.8,65.7,50.4,43.2,38.4,34.1,73,41,20,28.58,28.38,24,10,30,0.00
2013-10-1,85.5,67.7,48.2,44.7,33.4,19.6,61,31,13,28.67,28.44,10,4,23,0.00
2013-10-2,87.1,68.6,46.2,52.8,37.4,23.8,60,34,20,28.70,28.52,20,8,23,0.00
2013-10-3,81.5,66.9,60.3,62.0,52.3,44.4,88,63,30,28.55,28.47,10,3,13,0.08
2013-10-4,77.7,65.6,58.6,68.1,57.3,44.9,98,77,42,28.61,28.38,23,8,40,0.58
2013-10-5,62.6,50.7,39.6,44.9,28.2,21.7,61,43,28,28.58,28.44,19,8,19,0.00
2013-10-6,50.9,45.9,40.6,46.0,37.8,26.0,85,74,50,28.61,28.44,18,6,23,0.04
2013-10-7,77.5,56.7,41.5,36.9,31.8,25.0,71,43,21,28.70,28.61,13,6,17,0.00
2013-10-8,81.0,61.9,45.5,35.5,32.6,29.1,66,37,17,28.70,28.58,28,10,33,0.00
2013-10-9,80.2,62.3,48.4,43.3,36.9,30.9,78,43,20,28.73,28.64,22,9,26,0.00
2013-10-10,82.8,64.9,47.5,42.5,37.3,31.2,70,40,20,28.73,28.52,25,10,31,0.00
2013-10-11,75.4,63.5,53.1,51.8,43.6,31.9,66,49,34,28.55,28.35,33,15,39,0.00
2013-10-12,67.6,53.9,40.3,34.1,25.5,13.7,63,36,17,28.91,28.52,22,8,26,0.00
2013-10-13,72.3,53.2,31.5,30.9,21.2,15.3,60,31,16,29.12,28.91,9,4,12,0.00
2013-10-14,62.6,50.9,39.7,47.2,27.9,18.5,86,43,24,29.03,28.47,28,11,34,0.75
2013-10-15,55.4,48.6,44.6,52.8,39.6,32.8,92,71,57,28.61,28.41,26,12,31,0.04
2013-10-16,59.4,45.3,34.0,39.5,29.4,16.4,84,57,27,28.70,28.61,16,6,18,0.00
2013-10-17,65.5,44.4,31.3,29.7,25.6,20.6,79,52,23,28.67,28.52,12,4,18,0.00
2013-10-18,56.3,43.6,34.5,30.1,22.2,14.3,73,45,25,28.76,28.61,13,6,17,0.00
2013-10-19,57.9,42.1,31.6,31.8,26.5,19.5,84,58,27,28.61,28.47,20,8,24,0.00
2013-10-20,63.5,52.1,35.6,31.0,27.1,21.0,66,39,27,28.64,28.38,28,13,31,0.00
2013-10-21,52.7,39.9,28.9,26.8,18.1,10.0,70,43,26,28.73,28.61,20,6,26,0.00
2013-10-22,46.4,37.9,33.6,31.4,23.0,15.1,89,57,37,28.76,28.58,14,5,16,0.12
2013-10-23,39.4,34.9,29.8,31.1,23.8,16.0,85,64,47,28.82,28.73,11,4,12,0.05
2013-10-24,51.4,38.2,29.3,25.7,20.3,15.2,75,50,29,29.03,28.82,17,6,18,0.00
2013-10-25,59.2,41.6,22.8,24.8,19.9,13.1,75,45,26,29.03,28.64,29,9,29,0.00
2013-10-26,54.7,42.0,27.3,26.8,18.9,12.0,59,41,26,28.85,28.61,15,7,20,0.00
2013-10-27,68.2,45.4,23.7,28.4,20.7,11.1,73,41,22,28.79,28.50,23,7,25,0.00
2013-10-28,52.5,41.3,35.4,26.4,22.6,20.7,61,48,35,28.97,28.67,23,11,25,0.00
2013-10-29,57.6,46.3,37.2,38.3,29.5,21.0,64,52,36,28.97,28.67,14,8,16,0.00
2013-10-30,66.7,52.9,44.8,57.0,47.2,37.9,98,83,44,28.67,28.41,31,9,35,0.08
2013-10-31,52.0,42.4,37.0,41.0,32.2,27.2,89,68,41,28.41,28.17,20,8,21,0.00
2013-11-1,59.0,46.7,37.8,30.8,28.2,24.3,72,50,30,28.58,28.20,24,11,28,0.00
2013-11-2,57.7,44.5,34.9,32.7,25.0,14.2,75,48,27,28.79,28.58,15,7,19,0.00
2013-11-3,58.6,45.8,33.8,26.4,22.4,19.6,65,42,25,28.76,28.47,40,20,46,0.00
2013-11-4,57.4,45.1,28.6,34.6,25.6,14.8,66,47,29,28.85,28.50,25,10,26,0.00
2013-11-5,39.0,34.2,25.2,35.2,28.0,15.0,89,78,53,28.85,28.55,22,6,28,1.16
2013-11-6,46.2,35.5,27.5,30.5,21.4,15.0,87,59,31,28.88,28.61,15,7,20,0.00
2013-11-7,46.9,34.6,27.9,28.1,19.2,11.8,89,56,28,28.97,28.88,20,8,21,0.00
2013-11-8,59.2,41.0,22.1,27.8,20.1,10.0,69,44,27,28.91,28.38,35,12,42,0.00
2013-11-9,56.7,42.1,0.0,28.1,21.2,0.0,55,41,29,28.97,28.47,26,12,29,0.00
2013-11-10,51.4,36.1,19.9,25.6,17.3,10.4,79,48,30,29.09,28.79,15,6,15,0.00
2013-11-11,38.5,26.0,11.3,24.2,9.9,-3.7,66,50,43,29.35,28.76,15,7,18,0.00
2013-11-12,37.0,18.0,3.2,8.5,-1.1,-11.2,50,43,30,29.47,29.14,11,6,12,0.00
2013-11-13,55.2,37.0,18.5,21.0,12.4,1.6,47,37,26,29.15,28.64,28,12,31,0.00
2013-11-14,57.7,40.5,28.0,26.7,20.4,13.1,71,46,30,28.64,28.52,11,6,14,0.00
2013-11-15,63.5,40.7,23.7,33.0,23.5,16.2,79,54,28,28.58,28.32,17,7,21,0.00
2013-11-16,67.3,48.7,37.9,46.2,33.9,19.0,89,60,28,28.32,27.96,28,12,30,0.00
2013-11-17,53.1,40.7,32.7,39.5,26.7,16.4,85,58,38,28.61,28.05,22,7,26,0.17
2013-11-18,49.8,35.7,25.9,27.1,19.8,10.6,77,54,31,28.91,28.61,18,8,20,0.00
2013-11-19,59.4,42.8,27.3,26.8,21.4,17.4,80,46,25,28.88,28.58,33,18,37,0.00
2013-11-20,53.2,43.0,28.6,27.5,21.5,16.7,77,44,31,28.67,28.52,29,15,33,0.00
2013-11-21,32.9,26.6,19.2,30.3,15.4,6.0,90,63,43,29.17,28.67,17,8,20,0.00
2013-11-22,36.5,18.3,7.0,8.9,1.1,-6.1,63,47,30,29.29,29.14,15,7,16,0.00
2013-11-23,23.0,9.6,-1.8,3.2,-11.3,-23.3,52,38,33,29.47,29.23,13,4,15,0.00
2013-11-24,32.2,16.8,-1.3,5.7,-5.1,-22.9,48,37,31,29.35,28.82,24,12,29,0.00
2013-11-25,47.3,31.1,21.9,19.4,11.1,5.1,57,44,30,28.82,28.70,21,10,27,0.00
2013-11-26,30.6,23.7,12.4,14.9,2.4,-7.6,64,40,28,29.03,28.79,21,9,24,0.00
2013-11-27,33.8,19.4,2.7,6.4,-1.5,-13.8,53,40,30,29.03,28.67,20,8,26,0.00
2013-11-28,36.7,20.8,6.4,8.9,1.4,-9.5,60,43,30,29.12,28.67,14,5,17,0.00
2013-11-29,37.6,23.0,5.2,15.6,4.8,-10.6,60,45,34,29.14,28.79,26,10,26,0.00
2013-11-30,56.7,35.1,20.5,22.7,15.5,6.5,73,47,26,28.82,28.70,13,5,14,0.00
2013-12-1,40.8,30.1,20.3,19.5,13.5,5.8,69,51,37,28.82,28.55,8,3,9,0.00
2013-12-2,54.1,36.2,25.5,27.1,22.1,15.7,77,58,34,28.55,28.23,20,8,22,0.00
2013-12-3,47.8,33.9,25.2,30.5,24.9,14.2,89,71,40,28.38,28.26,17,4,21,0.00
2013-12-4,34.3,25.7,11.3,33.6,19.3,-3.3,97,78,51,28.61,28.26,29,12,33,0.00
2013-12-5,16.2,8.4,1.2,-1.1,-9.4,-18.5,51,44,38,29.03,28.58,28,14,32,0.00
2013-12-6,12.9,1.3,-5.3,-7.9,-18.4,-24.3,38,38,38,29.29,29.03,14,8,20,0.00
2013-12-7,20.3,4.1,-9.6,-4.5,-17.1,-28.2,38,36,31,29.35,29.12,9,4,12,0.00
2013-12-8,20.3,11.6,1.6,2.8,-7.3,-14.5,54,42,34,29.12,28.67,13,6,16,0.00
2013-12-9,11.1,2.2,-6.7,-2.3,-10.6,-19.0,54,54,54,28.88,28.61,20,12,23,0.00
2013-12-10,19.9,15.1,7.9,8.8,-0.3,-6.9,69,51,37,28.88,28.55,29,11,39,0.00
2013-12-11,17.6,1.8,-12.6,9.2,-9.0,-22.9,69,60,59,29.23,28.88,18,7,20,0.00
2013-12-12,38.7,16.2,3.6,12.2,0.4,-7.6,59,50,31,29.03,28.73,20,7,20,0.00
2013-12-13,24.1,16.0,6.8,8.9,2.8,-5.9,63,55,49,28.79,28.61,19,8,20,0.00
2013-12-14,18.5,12.9,6.4,3.7,-0.7,-6.3,57,54,44,28.85,28.79,16,7,20,0.00
2013-12-15,13.6,10.1,5.5,0.5,-2.9,-7.1,55,55,55,28.79,28.67,10,5,12,0.00
2013-12-16,31.6,22.0,10.2,17.9,8.6,-2.7,81,57,41,28.76,28.61,13,7,16,0.00
2013-12-17,34.3,25.0,8.4,20.4,10.3,-4.0,83,55,37,28.85,28.70,27,11,28,0.00
2013-12-18,50.7,29.7,9.5,24.8,13.0,-3.0,72,50,35,28.76,28.38,21,7,23,0.00
2013-12-19,33.1,23.6,17.8,20.7,10.9,6.6,69,58,49,28.58,28.44,20,8,23,0.00
2013-12-20,19.0,16.9,14.2,9.6,6.6,2.7,72,63,57,28.61,28.52,10,5,13,0.00
2013-12-21,22.3,17.6,10.2,10.9,6.3,-0.5,65,61,45,28.58,28.50,10,4,12,0.00
2013-12-22,19.2,12.7,1.0,8.4,-2.1,-15.3,63,51,43,28.97,28.52,18,10,22,0.00
2013-12-23,8.1,-1.2,-10.5,-8.9,-17.4,-26.0,45,45,45,29.14,28.97,20,11,25,0.00
2013-12-24,18.5,12.3,3.7,8.4,-4.0,-12.9,64,47,45,28.97,28.79,26,15,31,0.00
2013-12-25,34.0,25.9,18.3,20.4,13.6,6.9,79,60,44,28.85,28.79,24,10,26,0.00
2013-12-26,50.5,36.9,21.4,20.3,15.4,10.7,64,42,29,28.85,28.73,11,6,12,0.00
2013-12-27,57.7,32.5,16.2,23.2,14.9,5.4,74,52,26,28.88,28.67,23,7,28,0.00
2013-12-28,59.4,35.3,12.7,23.7,16.7,0.0,74,50,24,28.70,28.38,28,10,31,0.00
2013-12-29,11.8,2.0,-10.5,-0.8,-10.1,-21.8,56,56,56,28.97,28.70,26,11,29,0.00
2013-12-30,16.7,5.3,-8.5,0.9,-8.0,-20.0,56,53,47,28.91,28.70,15,7,20,0.00
2013-12-31,9.7,5.2,-4.0,-4.8,-9.0,-17.5,51,51,51,28.91,28.82,15,7,18,0.00
2014-1-1,6.1,1.2,-1.3,-8.2,-12.7,-15.0,51,51,51,29.03,28.85,16,7,19,0.00
2014-1-2,9.1,-4.6,-17.1,-5.5,-18.1,-29.8,51,51,51,29.12,29.00,7,3,9,0.00